Change the Weather History Date:

Thursday, April 18, 2013

  Actual Average Record
Temperature  
Mean Temperature 68 °F -  
Max Temperature 82 °F 69 °F 87 °F (2002)
Min Temperature 55 °F 48 °F 30 °F (1997)
Cooling Degree Days 4    
Growing Degree Days 18 (Base 50)    
Moisture  
Dew Point 63 °F    
Average Humidity 80    
Maximum Humidity 100    
Minimum Humidity 46    
Precipitation  
Precipitation 0.92 in - - ()
Sea Level Pressure  
Sea Level Pressure 29.70 in    
Wind  
Wind Speed 14 mph (South)    
Max Wind Speed 25 mph    
Max Gust Speed 33 mph    
Visibility 8 miles    
Events Fog , Rain    
Averages and records for this station are not official NWS values.
T = Trace of Precipitation, MM = Missing Value Source: NWS Daily Summary

Daily Weather History Graph

Daily Weather History Graph

Search for Another Location

Airport or City:

Trip Planner

Search our weather history database for the weather conditions in past years. The results will help you decide how hot, cold, wet, or windy it might be!

Date:

Astronomy

Apr. 18, 2013 Rise Set
Actual Time 6:11 AM CDT 7:27 PM CDT
Civil Twilight 5:44 AM CDT 7:54 PM CDT
Nautical Twilight 5:12 AM CDT 8:26 PM CDT
Astronomical Twilight 4:39 AM CDT 8:59 PM CDT
Moon 12:24 PM CDT (4/18) 1:39 AM CDT (4/18)
Length of Visible Light 14h 09m
Length of Day
13h 15m
First Quarter, 52% of the Moon is Illuminated
Apr 18
First Quarter
Apr 25
Full
May 2
Last Quarter
May 9
New
May 17
First Quarter

Hourly Weather History & Observations

Time (CDT) Temp. Heat Index Dew Point Humidity Pressure Visibility Wind Dir Wind Speed Gust Speed Precip Events Conditions
12:55 AM 73.8 °F - 64.4 °F 72% 29.88 in 10.0 mi South 12.7 mph 18.4 mph N/A   Scattered Clouds
1:55 AM 71.8 °F - 65.5 °F 80% 29.87 in 10.0 mi SSE 10.4 mph - N/A   Clear
2:55 AM 71.1 °F - 66.2 °F 85% 29.85 in 10.0 mi South 11.5 mph - N/A   Clear
3:55 AM 70.7 °F - 67.5 °F 89% 29.83 in 10.0 mi SSE 10.4 mph - N/A   Clear
4:12 AM 69.8 °F - 68.0 °F 94% 29.83 in 10.0 mi SSE 11.5 mph - N/A   Mostly Cloudy
4:55 AM 70.9 °F - 68.4 °F 92% 29.83 in 10.0 mi South 9.2 mph - N/A   Mostly Cloudy
5:43 AM 71.6 °F - 68.0 °F 88% 29.83 in 10.0 mi South 16.1 mph 21.9 mph N/A   Scattered Clouds
5:55 AM 72.5 °F - 67.5 °F 84% 29.84 in 10.0 mi South 15.0 mph 23.0 mph N/A   Partly Cloudy
6:55 AM 72.7 °F - 67.6 °F 84% 29.86 in 10.0 mi South 11.5 mph 18.4 mph N/A   Partly Cloudy
7:55 AM 73.4 °F - 66.4 °F 79% 29.87 in 10.0 mi South 13.8 mph 29.9 mph N/A   Scattered Clouds
8:55 AM 74.1 °F - 63.9 °F 70% 29.85 in 10.0 mi South 19.6 mph 24.2 mph N/A   Clear
9:55 AM 76.6 °F - 62.6 °F 62% 29.84 in 10.0 mi South 13.8 mph 24.2 mph N/A   Partly Cloudy
10:55 AM 79.3 °F - 60.6 °F 53% 29.83 in 10.0 mi South 19.6 mph 28.8 mph N/A   Clear
11:55 AM 79.7 °F - 60.3 °F 51% 29.82 in 10.0 mi South 18.4 mph 26.5 mph N/A   Scattered Clouds
12:55 PM 80.4 °F 81.5 °F 61.7 °F 53% 29.80 in 10.0 mi South 17.3 mph 28.8 mph N/A   Partly Cloudy
1:55 PM 81.5 °F 82.2 °F 61.3 °F 50% 29.78 in 10.0 mi South 17.3 mph 28.8 mph 0.01 in   Clear
2:55 PM 82.0 °F 82.5 °F 60.4 °F 48% 29.74 in 10.0 mi South 13.8 mph 27.6 mph N/A   Clear
3:55 PM 81.1 °F 81.4 °F 58.8 °F 46% 29.72 in 10.0 mi South 19.6 mph 27.6 mph N/A   Clear
4:55 PM 80.1 °F 80.8 °F 59.2 °F 49% 29.70 in 10.0 mi SSE 13.8 mph 20.7 mph N/A   Clear
5:55 PM 79.2 °F - 58.6 °F 49% 29.66 in 10.0 mi SSE 16.1 mph 32.2 mph N/A   Partly Cloudy
6:55 PM 78.3 °F - 58.5 °F 50% 29.65 in 10.0 mi South 13.8 mph 23.0 mph N/A   Mostly Cloudy
7:55 PM 77.4 °F - 58.8 °F 53% 29.66 in 10.0 mi South 15.0 mph 23.0 mph N/A   Clear
7:57 PM 77.0 °F - 59.0 °F 54% 29.69 in 10.0 mi South 12.7 mph 23.0 mph N/A   Clear
8:55 PM 76.8 °F - 59.4 °F 55% 29.63 in 10.0 mi South 10.4 mph 20.7 mph N/A   Mostly Cloudy
8:57 PM 77.0 °F - 59.0 °F 54% 29.66 in 10.0 mi SSE 13.8 mph 20.7 mph N/A   Mostly Cloudy
8:59 PM 77.0 °F - 60.8 °F 57% 29.62 in 10.0 mi SSE 13.8 mph 20.7 mph N/A   Light Drizzle
9:02 PM 75.2 °F - 60.8 °F 61% 29.63 in 10.0 mi South 13.8 mph 19.6 mph N/A Rain Light Rain
9:31 PM 71.6 °F - 64.4 °F 78% 29.65 in 10.0 mi South 9.2 mph 19.6 mph N/A   Overcast
9:34 PM 71.6 °F - 64.4 °F 78% 29.65 in 10.0 mi South 8.1 mph - N/A Rain Light Rain
9:52 PM 69.8 °F - 66.2 °F 88% 29.65 in 8.0 mi South 6.9 mph - N/A Rain Light Rain
9:54 PM 69.8 °F - 66.2 °F 88% 29.65 in 8.0 mi South 8.1 mph - N/A Rain Light Rain
9:55 PM 69.4 °F - 66.9 °F 92% 29.64 in 7.0 mi South 6.9 mph - 0.04 in Rain Light Rain
9:57 PM 69.8 °F - 68.0 °F 94% 29.68 in 6.0 mi South 6.9 mph - N/A Rain Rain
10:04 PM 68.0 °F - 68.0 °F 100% 29.64 in 5.0 mi South 6.9 mph - N/A Rain Rain
10:06 PM 68.0 °F - 68.0 °F 100% 29.64 in 5.0 mi South 9.2 mph - N/A Rain Rain
10:41 PM 68.0 °F - 68.0 °F 100% 29.60 in 6.0 mi SSE 10.4 mph - N/A Rain Light Rain
10:50 PM 68.0 °F - 68.0 °F 100% 29.59 in 10.0 mi SSE 9.2 mph - N/A   Light Drizzle
10:55 PM 67.3 °F - 67.3 °F 100% 29.59 in 10.0 mi SSE 13.8 mph 19.6 mph 0.20 in Rain Light Rain
11:10 PM 68.0 °F - 68.0 °F 100% 29.58 in 6.0 mi SSE 12.7 mph - N/A Rain Rain
11:26 PM 66.2 °F - 66.2 °F 100% 29.61 in 4.0 mi West 18.4 mph - N/A Rain Rain
11:29 PM 66.2 °F - 66.2 °F 100% 29.59 in 1.2 mi WNW 18.4 mph 23.0 mph N/A Rain Heavy Rain
11:30 PM 66.2 °F - 66.2 °F 100% 29.60 in 1.0 mi WNW 18.4 mph 23.0 mph N/A Rain Heavy Rain
11:35 PM 62.6 °F - 62.6 °F 100% 29.62 in 0.5 mi WNW 25.3 mph 31.1 mph N/A Fog , Rain Heavy Rain
11:38 PM 60.8 °F - 60.8 °F 100% 29.63 in 0.8 mi WNW 23.0 mph 31.1 mph N/A Rain Heavy Rain
11:42 PM 59.0 °F - 59.0 °F 100% 29.64 in 1.0 mi WNW 21.9 mph 31.1 mph N/A Rain Heavy Rain
11:44 PM 57.2 °F - 57.2 °F 100% 29.64 in 1.0 mi WNW 25.3 mph 33.4 mph N/A Rain Heavy Rain
11:45 PM 57.2 °F - 57.2 °F 100% 29.64 in 1.2 mi WNW 24.2 mph 33.4 mph N/A Rain Heavy Rain
11:47 PM 57.2 °F - 57.2 °F 100% 29.65 in 1.5 mi WNW 19.6 mph 33.4 mph N/A Rain Heavy Rain
11:51 PM 55.4 °F - 55.4 °F 100% 29.64 in 2.0 mi WNW 23.0 mph 33.4 mph N/A Rain Heavy Rain
11:55 PM 55.4 °F - 55.4 °F 100% 29.64 in 2.0 mi WNW 18.4 mph 29.9 mph 0.67 in Rain Heavy Rain